Cloud_Cover
98 99 71 91 80 70 5 72 100 100 100 100 100 100 100 100 100 86 93 67 64 96
100 99 100 100 92 47 50 100 100 100 100 100 100 100 100 100 74 74 100 98 100 100
100 100 100 100 100 100 100 100 100 100 100 100 100 100 100 100 100 100 100 100 100 100
100 100 100 100 100 100 100 100 100 100 100 100 100 99 100 100 100 100 100 100 100 100
100 100 100 100 100 100 100 100 100 100 100 100 100 100 100 100 100 100 100 98 100 90
100 100 100 100 100 100 100 100 100 100 100 100 100 100 100 98 94 100 100 100 100 96
100 100 100 100 100 100 100 100 100 100 100 100 100 97 65 73 100 98 95 99 100 100
100 100 100 100 100 100 100 100 100 100 100 100 100 99 98 88 97 100 100 100 100 100
100 100 100 100 100 100 100 100 100 100 100 100 100 100 100 100 100 100 100 100 99 100
100 100 100 100 100 100 100 100 100 100 100 100 100 100 100 100 100 100 100 100 100 100
100 100 100 100 100 100 100 100 100 100 100 100 100 100 100 100 100 100 100 100 100 100
100 100 100 100 100 100 100 100 100 100 100 100 100 100 100 100 100 100 100 100 100 100
100 100 100 100 100 100 100 100 100 100 100 100 100 100 100 100 100 100 100 100 100 100
100 100 100 100 100 100 100 100 100 100 100 100 100 100 100 100 100 100 99 94 100 100